| time (UTC) | temp C | wind direction | speed KPH | gust KPH | rain 1hr cm | rain 24hr cm | rain mn cm | humidity % | barometer mb |
| 20260508145251 | 17 | 129 | 1.6 | 1.6 | 0.00 | 0.00 | 0.00 | 50 | 1018.2 |
| 20260508144748 | 17 | 143 | 1.6 | 3.2 | 0.00 | 0.00 | 0.00 | 53 | 1018.3 |
| 20260508144246 | 17 | 184 | 0.0 | 1.6 | 0.00 | 0.00 | 0.00 | 54 | 1018.4 |
| 20260508143743 | 17 | 193 | 1.6 | 1.6 | 0.00 | 0.00 | 0.00 | 52 | 1018.2 |
| 20260508143240 | 16 | 216 | 4.8 | 4.8 | 0.00 | 0.00 | 0.00 | 51 | 1018.5 |
| 20260508142736 | 16 | 183 | 3.2 | 3.2 | 0.00 | 0.00 | 0.00 | 55 | 1018.3 |
| 20260508142233 | 16 | 106 | 3.2 | 3.2 | 0.00 | 0.00 | 0.00 | 51 | 1018.0 |
| 20260508141730 | 16 | 196 | 0.0 | 0.0 | 0.00 | 0.00 | 0.00 | 61 | 1018.4 |
| 20260508141228 | 16 | 138 | 1.6 | 3.2 | 0.00 | 0.00 | 0.00 | 65 | 1018.4 |
| 20260508140725 | 16 | 181 | 1.6 | 1.6 | 0.00 | 0.00 | 0.00 | 61 | 1018.3 |
| 20260508140221 | 16 | 177 | 0.0 | 1.6 | 0.00 | 0.00 | 0.00 | 62 | 1018.2 |
| 20260508135718 | 16 | 171 | 3.2 | 3.2 | 0.00 | 0.00 | 0.00 | 64 | 1018.1 |
| 20260508135213 | 16 | 198 | 3.2 | 3.2 | 0.00 | 0.00 | 0.00 | 67 | 1018.1 |
| 20260508134709 | 15 | 189 | 0.0 | 0.0 | 0.00 | 0.00 | 0.00 | 76 | 1018.1 |
| 20260508134207 | 15 | 180 | 1.6 | 1.6 | 0.00 | 0.00 | 0.00 | 71 | 1018.1 |
| 20260508133703 | 15 | 202 | 1.6 | 3.2 | 0.00 | 0.00 | 0.00 | 76 | 1018.2 |
| 20260508133201 | 15 | 177 | 0.0 | 1.6 | 0.00 | 0.00 | 0.00 | 78 | 1018.1 |
| 20260508132659 | 15 | 227 | 0.0 | 1.6 | 0.00 | 0.00 | 0.00 | 80 | 1018.2 |
| 20260508132156 | 15 | 180 | 1.6 | 1.6 | 0.00 | 0.00 | 0.00 | 76 | 1018.4 |
| 20260508131651 | 13 | 181 | 0.0 | 0.0 | 0.00 | 0.00 | 0.00 | 81 | 1018.2 |
| 20260508131148 | 13 | 202 | 1.6 | 3.2 | 0.00 | 0.00 | 0.00 | 82 | 1018.1 |
| 20260508130644 | 12 | 200 | 1.6 | 1.6 | 0.00 | 0.00 | 0.00 | 87 | 1018.3 |
| 20260508130142 | 12 | 194 | 1.6 | 3.2 | 0.00 | 0.00 | 0.00 | 94 | 1018.1 |
| 20260508125637 | 11 | 177 | 0.0 | 0.0 | 0.00 | 0.00 | 0.00 | 99 | 1017.8 |
| 20260508125134 | 11 | 170 | 0.0 | 0.0 | 0.00 | 0.00 | 0.00 | 99 | 1018.0 |
| 20260508124632 | 11 | 181 | 0.0 | 0.0 | 0.00 | 0.00 | 0.00 | 99 | 1018.1 |
| 20260508124129 | 11 | 180 | 0.0 | 0.0 | 0.00 | 0.00 | 0.00 | 99 | 1017.7 |
| 20260508123627 | 11 | 179 | 0.0 | 0.0 | 0.00 | 0.00 | 0.00 | 99 | 1018.0 |
| 20260508123125 | 11 | 173 | 0.0 | 0.0 | 0.00 | 0.00 | 0.00 | 99 | 1017.6 |
| 20260508122620 | 11 | 176 | 0.0 | 0.0 | 0.00 | 0.00 | 0.00 | 99 | 1017.7 |
| 20260508122118 | 11 | 179 | 0.0 | 0.0 | 0.00 | 0.00 | 0.00 | 99 | 1017.5 |
| 20260508121616 | 11 | 158 | 0.0 | 0.0 | 0.00 | 0.00 | 0.00 | 99 | 1017.5 |
| 20260508121114 | 10 | 177 | 0.0 | 0.0 | 0.00 | 0.00 | 0.00 | 99 | 1017.5 |
| 20260508120611 | 11 | 178 | 0.0 | 0.0 | 0.00 | 0.00 | 0.00 | 99 | 1017.7 |
| 20260508120109 | 11 | 172 | 0.0 | 0.0 | 0.00 | 0.00 | 0.00 | 99 | 1017.7 |
| 20260508115606 | 11 | 173 | 0.0 | 0.0 | 0.00 | 0.00 | 0.00 | 99 | 1017.5 |
| 20260508115103 | 11 | 173 | 0.0 | 0.0 | 0.00 | 0.00 | 0.00 | 99 | 1017.3 |
| 20260508114600 | 10 | 172 | 0.0 | 0.0 | 0.00 | 0.00 | 0.00 | 99 | 1017.1 |
| 20260508114056 | 10 | 172 | 0.0 | 0.0 | 0.00 | 0.00 | 0.00 | 99 | 1017.2 |
| 20260508113554 | 10 | 171 | 0.0 | 0.0 | 0.00 | 0.00 | 0.00 | 99 | 1016.9 |
| 20260508113052 | 9 | 170 | 0.0 | 0.0 | 0.00 | 0.00 | 0.00 | 99 | 1016.9 |
| 20260508112547 | 9 | 170 | 0.0 | 0.0 | 0.00 | 0.00 | 0.00 | 99 | 1016.7 |
| 20260508112045 | 8 | 171 | 0.0 | 0.0 | 0.00 | 0.00 | 0.00 | 99 | 1016.6 |
| 20260508111542 | 8 | 169 | 0.0 | 0.0 | 0.00 | 0.00 | 0.00 | 99 | 1016.6 |
| 20260508111038 | 8 | 168 | 0.0 | 0.0 | 0.00 | 0.00 | 0.00 | 99 | 1016.5 |
| 20260508110537 | 8 | 168 | 0.0 | 0.0 | 0.00 | 0.00 | 0.00 | 99 | 1016.5 |
| 20260508110032 | 8 | 167 | 0.0 | 0.0 | 0.00 | 0.00 | 0.00 | 99 | 1016.4 |
| 20260508105527 | 8 | 169 | 0.0 | 0.0 | 0.00 | 0.00 | 0.00 | 99 | 1016.4 |
| 20260508105025 | 8 | 170 | 0.0 | 0.0 | 0.00 | 0.00 | 0.00 | 99 | 1016.4 |
| 20260508104523 | 8 | 170 | 0.0 | 0.0 | 0.00 | 0.00 | 0.00 | 99 | 1016.0 |
| 20260508104019 | 8 | 170 | 0.0 | 0.0 | 0.00 | 0.00 | 0.00 | 99 | 1015.9 |
| 20260508103516 | 8 | 170 | 0.0 | 0.0 | 0.00 | 0.00 | 0.00 | 99 | 1015.8 |
| 20260508103013 | 8 | 171 | 0.0 | 0.0 | 0.00 | 0.00 | 0.00 | 99 | 1015.7 |
| 20260508102511 | 8 | 171 | 0.0 | 0.0 | 0.00 | 0.00 | 0.00 | 99 | 1015.6 |
| 20260508102008 | 8 | 174 | 0.0 | 0.0 | 0.00 | 0.00 | 0.00 | 99 | 1015.8 |
| 20260508101506 | 8 | 172 | 0.0 | 0.0 | 0.00 | 0.00 | 0.00 | 99 | 1015.5 |
| 20260508101002 | 8 | 174 | 0.0 | 0.0 | 0.00 | 0.00 | 0.00 | 99 | 1015.6 |
| 20260508100501 | 8 | 170 | 0.0 | 0.0 | 0.00 | 0.00 | 0.00 | 99 | 1015.6 |
| 20260508095957 | 9 | 165 | 0.0 | 0.0 | 0.00 | 0.00 | 0.00 | 99 | 1015.6 |
| 20260508095455 | 9 | 169 | 0.0 | 0.0 | 0.00 | 0.00 | 0.00 | 99 | 1015.5 |
| 20260508094951 | 9 | 172 | 0.0 | 0.0 | 0.00 | 0.00 | 0.00 | 99 | 1015.7 |
| 20260508094448 | 9 | 173 | 0.0 | 0.0 | 0.00 | 0.00 | 0.00 | 99 | 1015.4 |
| 20260508093945 | 9 | 172 | 0.0 | 0.0 | 0.00 | 0.00 | 0.00 | 99 | 1015.4 |
| 20260508093442 | 9 | 172 | 0.0 | 0.0 | 0.00 | 0.00 | 0.00 | 99 | 1015.6 |
| 20260508092940 | 9 | 172 | 0.0 | 0.0 | 0.00 | 0.00 | 0.00 | 99 | 1015.4 |
| 20260508092437 | 9 | 173 | 0.0 | 0.0 | 0.00 | 0.00 | 0.00 | 99 | 1015.3 |
| 20260508091936 | 9 | 172 | 0.0 | 0.0 | 0.00 | 0.00 | 0.00 | 99 | 1015.4 |
| 20260508091432 | 9 | 170 | 0.0 | 0.0 | 0.00 | 0.00 | 0.00 | 99 | 1015.2 |
| 20260508090929 | 9 | 169 | 0.0 | 0.0 | 0.00 | 0.00 | 0.00 | 99 | 1015.0 |
| 20260508090428 | 9 | 169 | 0.0 | 0.0 | 0.00 | 0.00 | 0.00 | 99 | 1015.5 |
| 20260508085923 | 10 | 171 | 0.0 | 0.0 | 0.00 | 0.00 | 0.00 | 99 | 1015.3 |
| 20260508085420 | 10 | 170 | 0.0 | 0.0 | 0.00 | 0.00 | 0.00 | 99 | 1015.2 |
| 20260508084917 | 10 | 170 | 0.0 | 0.0 | 0.00 | 0.00 | 0.00 | 99 | 1014.9 |
| 20260508084414 | 10 | 170 | 0.0 | 0.0 | 0.00 | 0.00 | 0.00 | 99 | 1015.3 |
| 20260508083912 | 10 | 166 | 0.0 | 0.0 | 0.00 | 0.00 | 0.00 | 99 | 1015.1 |
| 20260508083409 | 10 | 170 | 0.0 | 0.0 | 0.00 | 0.00 | 0.00 | 99 | 1014.9 |
| 20260508082908 | 10 | 172 | 0.0 | 0.0 | 0.00 | 0.00 | 0.00 | 99 | 1014.9 |
| 20260508082406 | 10 | 169 | 0.0 | 0.0 | 0.00 | 0.00 | 0.00 | 99 | 1014.9 |
| 20260508081904 | 10 | 171 | 0.0 | 0.0 | 0.00 | 0.00 | 0.00 | 99 | 1015.0 |
| 20260508081400 | 10 | 168 | 0.0 | 0.0 | 0.00 | 0.00 | 0.00 | 99 | 1015.0 |
| 20260508080857 | 10 | 168 | 0.0 | 0.0 | 0.00 | 0.00 | 0.00 | 99 | 1014.9 |
| 20260508080355 | 10 | 170 | 0.0 | 0.0 | 0.00 | 0.00 | 0.00 | 99 | 1014.8 |
| 20260508075851 | 10 | 170 | 0.0 | 0.0 | 0.00 | 0.00 | 0.00 | 99 | 1014.6 |
| 20260508075348 | 10 | 168 | 0.0 | 0.0 | 0.00 | 0.00 | 0.00 | 99 | 1014.6 |
| 20260508074846 | 10 | 170 | 0.0 | 0.0 | 0.00 | 0.00 | 0.00 | 99 | 1014.7 |
| 20260508074343 | 10 | 174 | 0.0 | 0.0 | 0.00 | 0.00 | 0.00 | 99 | 1014.4 |
| 20260508073840 | 10 | 171 | 0.0 | 0.0 | 0.00 | 0.00 | 0.00 | 99 | 1014.6 |
| 20260508073338 | 10 | 169 | 0.0 | 0.0 | 0.00 | 0.00 | 0.00 | 99 | 1014.6 |
| 20260508072834 | 10 | 166 | 0.0 | 0.0 | 0.00 | 0.00 | 0.00 | 99 | 1014.4 |
| 20260508072331 | 10 | 169 | 0.0 | 0.0 | 0.00 | 0.00 | 0.00 | 99 | 1014.4 |
| 20260508071828 | 10 | 169 | 0.0 | 0.0 | 0.00 | 0.00 | 0.00 | 99 | 1014.5 |
| 20260508071326 | 10 | 170 | 0.0 | 0.0 | 0.00 | 0.00 | 0.00 | 99 | 1014.5 |
| 20260508070823 | 10 | 171 | 0.0 | 0.0 | 0.00 | 0.00 | 0.00 | 99 | 1014.4 |
| 20260508070322 | 10 | 174 | 0.0 | 0.0 | 0.00 | 0.00 | 0.00 | 99 | 1014.4 |
| 20260508065819 | 10 | 169 | 0.0 | 0.0 | 0.00 | 0.00 | 0.00 | 99 | 1014.4 |
| 20260508065317 | 10 | 169 | 0.0 | 0.0 | 0.00 | 0.00 | 0.00 | 99 | 1014.2 |
| 20260508064815 | 11 | 171 | 0.0 | 0.0 | 0.00 | 0.00 | 0.00 | 99 | 1014.4 |
| 20260508064312 | 11 | 173 | 0.0 | 0.0 | 0.00 | 0.00 | 0.00 | 99 | 1014.2 |
| 20260508063809 | 11 | 172 | 0.0 | 0.0 | 0.00 | 0.00 | 0.00 | 99 | 1014.3 |
| 20260508063307 | 11 | 171 | 0.0 | 0.0 | 0.00 | 0.00 | 0.00 | 99 | 1014.5 |
| 20260508062804 | 11 | 176 | 0.0 | 0.0 | 0.00 | 0.00 | 0.00 | 99 | 1014.2 |
| 20260508062305 | 11 | 172 | 0.0 | 0.0 | 0.00 | 0.00 | 0.00 | 99 | 1014.3 |
| 20260508061758 | 11 | 175 | 0.0 | 0.0 | 0.00 | 0.00 | 0.00 | 99 | 1014.4 |
| 20260507230634 | 15 | 7 | 11.3 | 16.1 | 0.00 | 4.45 | 4.45 | 93 | 1009.2 |
| 20260507230132 | 15 | 7 | 11.3 | 16.1 | 0.00 | 4.45 | 4.45 | 93 | 1009.2 |
| 20260507225632 | 15 | 121 | 3.2 | 3.2 | 0.00 | 4.45 | 4.45 | 94 | 1009.5 |
| 20260507225128 | 15 | 204 | 4.8 | 8.0 | 0.00 | 4.45 | 4.45 | 93 | 1009.0 |
| 20260507224624 | 15 | 208 | 1.6 | 1.6 | 0.00 | 4.45 | 4.45 | 93 | 1009.4 |
| 20260507224121 | 15 | 85 | 3.2 | 3.2 | 0.00 | 4.45 | 4.45 | 93 | 1009.2 |
| 20260507223617 | 16 | 144 | 6.4 | 9.7 | 0.00 | 4.45 | 4.45 | 92 | 1009.6 |
| 20260507223114 | 16 | 191 | 3.2 | 3.2 | 0.00 | 4.45 | 4.45 | 93 | 1009.0 |
| 20260507222611 | 16 | 40 | 4.8 | 9.7 | 0.00 | 4.45 | 4.45 | 92 | 1009.3 |
| 20260507222108 | 16 | 260 | 6.4 | 9.7 | 0.00 | 4.45 | 4.45 | 92 | 1008.8 |
| 20260507221603 | 16 | 142 | 3.2 | 4.8 | 0.00 | 4.45 | 4.45 | 92 | 1008.8 |
| 20260507221100 | 17 | 194 | 3.2 | 3.2 | 0.00 | 4.45 | 4.45 | 92 | 1008.6 |
| 20260507220558 | 17 | 229 | 9.7 | 14.5 | 0.00 | 4.45 | 4.45 | 92 | 1008.8 |
| 20260507220055 | 17 | 65 | 6.4 | 9.7 | 0.00 | 4.45 | 4.45 | 92 | 1009.2 |
| 20260507215551 | 17 | 216 | 11.3 | 12.9 | 0.00 | 4.45 | 4.45 | 91 | 1007.7 |
| 20260507215049 | 18 | 343 | 3.2 | 3.2 | 0.00 | 4.45 | 4.45 | 89 | 1008.0 |
| 20260507214546 | 19 | 262 | 11.3 | 14.5 | 0.00 | 4.45 | 4.45 | 87 | 1007.5 |
| 20260507214042 | 20 | 162 | 1.6 | 3.2 | 0.00 | 4.45 | 4.45 | 85 | 1007.7 |
| 20260507213538 | 21 | 232 | 9.7 | 12.9 | 0.00 | 4.45 | 4.45 | 81 | 1007.7 |
| 20260507213036 | 23 | 111 | 4.8 | 4.8 | 0.00 | 4.45 | 4.45 | 81 | 1007.0 |
| 20260507212532 | 23 | 158 | 0.0 | 0.0 | 0.00 | 4.45 | 4.45 | 78 | 1006.3 |
| 20260507212028 | 23 | 169 | 0.0 | 0.0 | 0.00 | 4.45 | 4.45 | 76 | 1006.1 |
| 20260507211525 | 23 | 168 | 0.0 | 0.0 | 0.00 | 4.45 | 4.45 | 73 | 1006.5 |
| 20260507211021 | 24 | 164 | 0.0 | 0.0 | 0.00 | 4.45 | 4.45 | 73 | 1006.5 |
| 20260507210519 | 24 | 157 | 1.6 | 1.6 | 0.00 | 4.45 | 4.45 | 72 | 1006.3 |
| 20260507210015 | 25 | 162 | 0.0 | 0.0 | 0.00 | 4.45 | 4.45 | 71 | 1006.6 |
| 20260507205512 | 24 | 175 | 0.0 | 1.6 | 0.00 | 4.45 | 4.45 | 72 | 1007.0 |
| 20260507205008 | 24 | 154 | 0.0 | 1.6 | 0.00 | 4.45 | 4.45 | 69 | 1006.9 |
| 20260507204505 | 24 | 167 | 0.0 | 0.0 | 0.00 | 4.45 | 4.45 | 72 | 1006.9 |
| 20260507204003 | 24 | 133 | 1.6 | 1.6 | 0.00 | 4.45 | 4.45 | 73 | 1006.8 |
| 20260507203500 | 24 | 167 | 0.0 | 0.0 | 0.00 | 4.45 | 4.45 | 71 | 1006.8 |
| 20260507202957 | 24 | 183 | 1.6 | 1.6 | 0.00 | 4.45 | 4.45 | 74 | 1006.9 |
| 20260507202453 | 25 | 165 | 0.0 | 0.0 | 0.00 | 4.45 | 4.45 | 71 | 1007.2 |
| 20260507201949 | 25 | 241 | 3.2 | 4.8 | 0.00 | 4.45 | 4.45 | 69 | 1007.1 |
| 20260507201449 | 25 | 104 | 1.6 | 3.2 | 0.00 | 4.45 | 4.45 | 69 | 1007.1 |
| 20260507200947 | 25 | 142 | 0.0 | 1.6 | 0.00 | 4.45 | 4.45 | 67 | 1007.0 |
| 20260507200442 | 25 | 230 | 3.2 | 3.2 | 0.00 | 4.45 | 4.45 | 68 | 1007.2 |
| 20260507195938 | 25 | 172 | 1.6 | 1.6 | 0.00 | 4.45 | 4.45 | 67 | 1007.4 |
| 20260507195436 | 25 | 128 | 1.6 | 1.6 | 0.00 | 4.45 | 4.45 | 67 | 1007.2 |
| 20260507194933 | 25 | 109 | 1.6 | 3.2 | 0.00 | 4.45 | 4.45 | 68 | 1007.4 |
| 20260507194430 | 25 | 183 | 0.0 | 0.0 | 0.00 | 4.45 | 4.45 | 67 | 1007.2 |
| 20260507193925 | 25 | 166 | 3.2 | 3.2 | 0.00 | 4.45 | 4.45 | 70 | 1007.5 |
| 20260507193423 | 25 | 156 | 0.0 | 1.6 | 0.00 | 4.45 | 4.45 | 74 | 1007.7 |
| 20260507192919 | 24 | 167 | 0.0 | 0.0 | 0.00 | 4.45 | 4.45 | 73 | 1007.8 |
| 20260507192415 | 24 | 10 | 1.6 | 1.6 | 0.00 | 4.45 | 4.45 | 71 | 1008.1 |
| 20260507191913 | 25 | 71 | 3.2 | 4.8 | 0.00 | 4.45 | 4.45 | 74 | 1007.7 |
| 20260507191409 | 23 | 142 | 0.0 | 1.6 | 0.00 | 4.45 | 4.45 | 73 | 1008.0 |
| 20260507190905 | 24 | 121 | 0.0 | 1.6 | 0.00 | 4.45 | 4.45 | 76 | 1008.1 |
| 20260507190403 | 24 | 170 | 0.0 | 0.0 | 0.00 | 4.45 | 4.45 | 77 | 1008.3 |
| 20260507185902 | 23 | 85 | 4.8 | 4.8 | 0.00 | 4.45 | 4.45 | 74 | 1008.1 |
| 20260507185359 | 23 | 178 | 0.0 | 0.0 | 0.00 | 4.45 | 4.45 | 75 | 1008.2 |
| 20260507184855 | 23 | 151 | 0.0 | 1.6 | 0.00 | 4.45 | 4.45 | 75 | 1008.2 |